This is the latest recevied weather packets stored in our database for station/object S54Z-11. If no packets are shown the sender has not sent any weather packets the latest 10 day(s).
| Time | Temp. | Humidity | Pressure | Rain* | Wind** | Luminosity | Snow |
|---|---|---|---|---|---|---|---|
| 1777033463 | 21.67° C | 27% | 1018.3 hPa | - | - | - | - |
| 1777032563 | 21.67° C | 25% | 1018.3 hPa | - | - | - | - |
| 1777031660 | 21.67° C | 25% | 1018.4 hPa | - | - | - | - |
| 1777030760 | 21.11° C | 27% | 1018.6 hPa | - | - | - | - |
| 1777029860 | 20.56° C | 31% | 1018.8 hPa | - | - | - | - |
| 1777028960 | 20° C | 29% | 1019 hPa | - | - | - | - |
| 1777028060 | 19.44° C | 30% | 1019.3 hPa | - | - | - | - |
| 1777027160 | 18.89° C | 30% | 1019.4 hPa | - | - | - | - |
| 1777026260 | 17.78° C | 31% | 1019.6 hPa | - | - | - | - |
| 1777025360 | 17.78° C | 32% | 1019.8 hPa | - | - | - | - |
| 1777024460 | 19.44° C | 30% | 1019.9 hPa | - | - | - | - |
| 1777023566 | 18.89° C | 28% | 1020.2 hPa | - | - | - | - |
| 1777023560 | 18.89° C | 28% | 1020.2 hPa | - | - | - | - |
| 1777022660 | 20° C | 32% | 1020.3 hPa | - | - | - | - |
| 1777021760 | 18.89° C | 28% | 1020.4 hPa | - | - | - | - |
| 1777020860 | 16.67° C | 32% | 1020.4 hPa | - | - | - | - |
| 1777019959 | 18.89° C | 31% | 1020.6 hPa | - | - | - | - |
| 1777019059 | 16.11° C | 33% | 1020.5 hPa | - | - | - | - |
| 1777018159 | 17.22° C | 33% | 1020.7 hPa | - | - | - | - |
| 1777017259 | 16.67° C | 37% | 1020.8 hPa | - | - | - | - |
| 1777016364 | 15.56° C | 33% | 1020.9 hPa | - | - | - | - |
| 1777015464 | 16.11° C | 34% | 1021 hPa | - | - | - | - |
| 1777014564 | 16.67° C | 33% | 1021 hPa | - | - | - | - |
| 1777013663 | 16.67° C | 33% | 1021 hPa | - | - | - | - |
| 1777012763 | 16.67° C | 33% | 1021 hPa | - | - | - | - |
* Rain since midnight (hover to see other rain measurements)
** Current wind speed in m/s (hover to see current wind gust speed)